Regional Weather Roundup
Issued by NWS

Home | Current Version | Previous Version | Graphics & Text | Print | Product List | Glossary On
Versions: 1 2 3 4 5 6 7 8 9 10 11 12 13 14 15 16 17 18 19 20 21 22 23 24 25 26 27 28 29 30 31 32 33 34 35 36 37 38 39 40 41 42 43 44 45 46 47 48 49 50
000
ASUS43 KLSX 302359
RWRMO

WEATHER SUMMARY FOR MISSOURI
NATIONAL WEATHER SERVICE SPRINGFIELD MO
700 PM CDT THU OCT 30 2014

NOTE: "FAIR" INDICATES FEW OR NO CLOUDS BELOW 12,000 FEET WITH NO
       SIGNIFICANT WEATHER AND/OR OBSTRUCTIONS TO VISIBILITY.
       CURRENT SKY AND/OR WEATHER CONDITIONS ARE NOT AVAILABLE FOR
       CHILLICOTHE AND FARMINGTON.

MOZ001>031-035>038-043-044-053-054-310100-
...NORTHERN AND WESTERN MISSOURI...

CITY           SKY/WX    TMP DP  RH WIND       PRES   REMARKS
KANSAS CTY INT PTCLDY    58  42  55 NW8       30.09R
6HR MIN TEMP:  58; 6HR MAX TEMP:  67;

KANSAS C DTWN  PTCLDY    62  41  46 N8        30.08R
6HR MIN TEMP:  62; 6HR MAX TEMP:  69; 6HR PCP: TRACE;

LEE`S SUMMIT   CLEAR     61  40  45 NW12      30.07R
6HR MIN TEMP:  61; 6HR MAX TEMP:  68;

ST JOSEPH      PTCLDY    59  41  51 NW14      30.11R
6HR MIN TEMP:  59; 6HR MAX TEMP:  68;

CHILLICOTHE      N/A     59  41  51 NW3       30.06R
6HR MIN TEMP:  58; 6HR MAX TEMP:  66;

KIRKSVILLE     MOCLDY    52  44  74 NE6       30.04R
6HR MIN TEMP:  52; 6HR MAX TEMP:  64;


$$
MOZ066>068-077>081-088>096-101>105-310100-
...SOUTHWEST MISSOURI...

CITY           SKY/WX    TMP DP  RH WIND       PRES   REMARKS
SPRINGFIELD    CLEAR     60  38  43 NW8       30.03R
6HR MIN TEMP:  60; 6HR MAX TEMP:  67;

JOPLIN         CLEAR     59  39  47 NW9       30.07R
6HR MIN TEMP:  59; 6HR MAX TEMP:  70; 6HR PCP:  0.13;


$$
MOZ032>034-039>042-045>050-055>058-069>072-310100-
...CENTRAL MISSOURI...

CITY           SKY/WX    TMP DP  RH WIND       PRES   REMARKS
COLUMBIA       MOCLDY    55  47  74 CALM      30.02R
6HR MIN TEMP:  48; 6HR MAX TEMP:  60; 6HR PCP:  0.01;

JEFFERSON CITY PTCLDY    54  48  80 E3        30.02R
6HR MIN TEMP:  48; 6HR MAX TEMP:  59; 6HR PCP:  0.07;

ROLLA          MOCLDY    50  46  86 S5        30.01R
6HR MIN TEMP:  47; 6HR MAX TEMP:  53; 6HR PCP:  0.18;

SEDALIA        CLEAR     57  41  55 N5        30.04R
6HR MIN TEMP:  54; 6HR MAX TEMP:  66;

OSAGE BEACH    CLEAR     54  46  76 NE3       30.02R

$$
MOZ051-052-059>065-310100-
...EAST CENTRAL MISSOURI...

CITY           SKY/WX    TMP DP  RH WIND       PRES   REMARKS
ST LOUIS INTL  MOCLDY    56  44  64 W5        30.04R
6HR MIN TEMP:  56; 6HR MAX TEMP:  62; 6HR PCP: TRACE;

SPIRIT OF STL  CLOUDY    52  46  80 CALM      30.02S
6HR MIN TEMP:  51; 6HR MAX TEMP:  60; 6HR PCP:  0.02;

ST CHARLES     MOCLDY    52  45  77 SW5       30.03R
6HR MIN TEMP:  52; 6HR MAX TEMP:  56; 6HR PCP:  0.03;


$$
MOZ072>076-082>087-097>100-106>115-310100-
...SOUTH CENTRAL AND SOUTHEAST MISSOURI...

CITY           SKY/WX    TMP DP  RH WIND       PRES   REMARKS
CAPE GIRARDEAU CLOUDY    55  48  77 W3        30.05S
6HR MIN TEMP:  54; 6HR MAX TEMP:  63; 6HR PCP: TRACE;

FARMINGTON     CLOUDY    52  48  87 SE6       30.04F
6HR MIN TEMP:  52; 6HR MAX TEMP:  61; 6HR PCP:  0.04;

POPLAR BLUFF   CLOUDY    57  46  66 E5        30.02S
6HR MIN TEMP:  56; 6HR MAX TEMP:  65; 6HR PCP: TRACE;

WEST PLAINS    CLEAR     54  42  64 E3        30.03R
6HR MIN TEMP:  54; 6HR MAX TEMP:  62; 6HR PCP: TRACE;


$$



USA.gov is the U.S. government's official web portal to all federal, state and local government web resources and services.